Location: G�ndlingen
(48.0142°N, 7.6396°E)
Time: 02:46:39
(UTC+00:00)

Cosmos-2242 - Pass Details

Date: 05 July 2020
Orbit: 592 x 616 km, 82.5° (Epoch: 04 August)

Event Time Altitude Azimuth Distance (km) Brightness Sun altitude
Rises 20:48:07 0° 348° (NNW) 2,870 7.8 -10.1°
Reaches altitude 10° 20:50:20 10° 345° (NNW) 1,965 6.8 -10.3°
Maximum altitude 20:54:39 66° 264° (W) 667 3.3 -10.8°
Drops below altitude 10° 20:58:57 10° 182° (S) 1,963 5.2 -11.2°
Enters shadow 20:59:05 - 182° (S) 2,016 5.2 -11.2°
